sat.trackr.live / text

‹ back to catalog

STARLINK-35129

NORAD 66077 · 2025-235V

PAYLOAD ACTIVE UNKNOWN

§ Identity

Operator
Country
US
Launch date
2025-10-19
Launch site
AFETR
Launch vehicle
Mass (kg)
RCS (m²)

Purposes: comms

External: N2YO · Heavens-Above · Gunter

§ Orbital elements

Epoch: 2026-05-25T00:03:02.906208Z

Period
94.11 min
Inclination
53.1570°
Eccentricity
0.0001333
Mean motion
15.30201430 rev/d
Perigee alt
474.3 km
Apogee alt
476.1 km
Semi-major
6,853.3 km
B*
3.1330e-4
RAAN
250.9209°
Arg perigee
87.4611°
Mean anomaly
272.6542°
Rev number
3,460

§ Raw data

STARLINK-351291 66077U 25235V   26145.00211697  .00008932  00000+0  31330-3 0  99912 66077  53.1570 250.9209 0001333  87.4611 272.6542 15.30201430 34603

JSON: /api/v1/satellites/66077 · /tle

For live sub-satellite position, see the globe view (requires WebGL).

§ Visibility from observer

Set your observer location to see the next 7 days of passes ≥ 10°. The values pass through the URL so the page stays shareable.

No JS? Fill the form by hand. The geolocation button needs JavaScript.